Satellite-Ground Cal/Val Region Overpasses Predictions

Prediction of Satellite NPP Overpassing Cal/Val Region: PacNW

Region Location: (Latitude: 10.00, Longitude: 139.50) to (Latitude: 22.70, Longitude: 165.60).

Table of predicted overpasses for the next 14.0 days since TLE Epoch: 10/19/2013
Interval Starting Time Starting Location Ending Time Ending Location
1 10/19/2013 15:31:24 ( 22.69, 152.32) 10/19/2013 15:35:00 ( 10.01, 149.30)
2 10/20/2013 02:40:30 ( 10.02, 159.82) 10/20/2013 02:44:05 ( 22.65, 156.81)
3 10/20/2013 15:12:23 ( 22.69, 157.08) 10/20/2013 15:15:59 ( 10.02, 154.06)
4 10/21/2013 02:21:28 ( 10.02, 164.58) 10/21/2013 02:25:04 ( 22.70, 161.56)
5 10/21/2013 14:53:21 ( 22.70, 161.84) 10/21/2013 14:56:57 ( 10.02, 158.82)
6 10/22/2013 03:43:57 ( 10.02, 143.97) 10/22/2013 03:47:33 ( 22.70, 140.94)
7 10/22/2013 14:35:30 ( 18.60, 165.59) 10/22/2013 14:37:56 ( 10.03, 163.58)
8 10/22/2013 16:15:50 ( 22.70, 141.23) 10/22/2013 16:17:51 ( 15.60, 139.50)
9 10/23/2013 03:24:56 ( 10.02, 148.73) 10/23/2013 03:28:32 ( 22.70, 145.70)
10 10/23/2013 15:56:49 ( 22.64, 145.97) 10/23/2013 16:00:24 ( 10.02, 142.96)
11 10/24/2013 03:05:54 ( 10.01, 153.49) 10/24/2013 03:09:30 ( 22.69, 150.46)
12 10/24/2013 15:37:48 ( 22.65, 150.73) 10/24/2013 15:41:23 ( 10.03, 147.72)
13 10/25/2013 02:46:53 ( 10.01, 158.25) 10/25/2013 02:50:29 ( 22.69, 155.22)
14 10/25/2013 15:18:46 ( 22.65, 155.49) 10/25/2013 15:22:21 ( 10.03, 152.48)
15 10/26/2013 02:27:51 ( 10.01, 163.01) 10/26/2013 02:31:27 ( 22.69, 159.98)
16 10/26/2013 14:59:45 ( 22.65, 160.25) 10/26/2013 15:03:20 ( 10.03, 157.24)
17 10/27/2013 02:11:27 ( 19.23, 165.60) 10/27/2013 02:12:26 ( 22.69, 164.74)
18 10/27/2013 03:50:20 ( 10.02, 142.39) 10/27/2013 03:53:46 ( 22.11, 139.51)
19 10/27/2013 14:40:43 ( 22.65, 165.01) 10/27/2013 14:44:18 ( 10.03, 162.00)
20 10/27/2013 16:22:13 ( 22.64, 139.64) 10/27/2013 16:22:22 ( 22.12, 139.51)
21 10/28/2013 03:31:18 ( 10.02, 147.15) 10/28/2013 03:34:54 ( 22.70, 144.13)
22 10/28/2013 16:03:12 ( 22.64, 144.40) 10/28/2013 16:06:47 ( 10.02, 141.39)
23 10/29/2013 03:12:17 ( 10.02, 151.91) 10/29/2013 03:15:52 ( 22.64, 148.90)
24 10/29/2013 15:44:09 ( 22.70, 149.17) 10/29/2013 15:47:45 ( 10.02, 146.15)
25 10/30/2013 02:53:15 ( 10.02, 156.67) 10/30/2013 02:56:50 ( 22.65, 153.66)
26 10/30/2013 15:25:08 ( 22.70, 153.93) 10/30/2013 15:28:44 ( 10.02, 150.91)
27 10/31/2013 02:34:14 ( 10.03, 161.43) 10/31/2013 02:37:49 ( 22.65, 158.42)
28 10/31/2013 15:06:07 ( 22.69, 158.69) 10/31/2013 15:09:43 ( 10.02, 155.67)
29 11/01/2013 02:15:56 ( 12.62, 165.59) 11/01/2013 02:18:47 ( 22.66, 163.18)
30 11/01/2013 03:56:42 ( 10.04, 140.81) 11/01/2013 03:58:18 ( 15.68, 139.50)


NCC Satellite Cal/Val Overpasses Prediction Service
